Location: Saint-Gilles les Bains
(21.0539°S, 55.2287°E)
Time: 10:16:49
(UTC+04:00)

Hubble Space Telescope - Visible Passes

Search period start: 12 December 2017 00:00
Search period end: 22 December 2017 00:00
Orbit: 538 x 541 km, 28.5° (Epoch: 11 December)

Date Brightness Start Highest point End Pass type
(mag) Time Alt. Az. Time Alt. Az. Time Alt. Az.
12 Dec 2.3 03:18:09 31° ENE 03:18:09 31° ENE 03:20:36 10° E visible
12 Dec 1.4 04:53:47 10° W 04:57:50 50° SSW 05:01:53 10° ESE visible
13 Dec 2.5 03:08:21 28° E 03:08:21 28° E 03:10:29 10° ESE visible
13 Dec 1.7 04:43:43 10° W 04:47:40 42° SSW 04:51:39 10° ESE visible
14 Dec 2.9 02:58:31 25° ESE 02:58:31 25° ESE 03:00:19 10° ESE visible
14 Dec 2.0 04:33:52 11° WSW 04:37:32 36° S 04:41:24 10° ESE visible
15 Dec 3.2 02:48:42 20° ESE 02:48:42 20° ESE 02:50:06 10° ESE visible
15 Dec 2.2 04:24:02 12° WSW 04:27:24 33° S 04:31:11 10° ESE visible
16 Dec 3.5 02:38:52 17° ESE 02:38:52 17° ESE 02:39:52 10° ESE visible
16 Dec 2.3 04:14:13 14° WSW 04:17:17 30° S 04:21:00 10° ESE visible
17 Dec 3.8 02:29:03 13° ESE 02:29:03 13° ESE 02:29:38 10° ESE visible
17 Dec 2.4 04:04:24 15° WSW 04:07:09 29° S 04:10:50 10° ESE visible
18 Dec 4.0 02:19:17 10° ESE 02:19:17 10° ESE 02:19:23 10° ESE visible
18 Dec 2.5 03:54:38 17° SW 03:57:03 28° S 04:00:41 10° ESE visible
19 Dec 2.5 03:44:57 19° SW 03:46:57 28° S 03:50:35 10° ESE visible
20 Dec 2.5 03:35:20 23° SSW 03:36:49 29° S 03:40:30 10° ESE visible
21 Dec 2.3 03:25:52 29° SSW 03:26:42 31° S 03:30:26 10° ESE visible
21 Dec 1.1 05:04:03 10° WSW 05:08:13 69° SSE 05:12:21 10° ENE visible
